Orbital Elements at Epoch 2459200.5 (2020-Dec-17.0) TDB
Reference: JPL 21 (heliocentric ecliptic J2000)
Element | Value | Uncertainty (1-sigma) | Units |
e | .1272057899473363 | 5.8077e-08 | |
a | 2.404913747435395 | 1.421e-08 | au |
q | 2.098994794437667 | 1.4304e-07 | au |
i | 6.748276163487597 | 6.0565e-06 | deg |
node | 8.243610141120245 | 3.1286e-05 | deg |
peri | 343.4832795325094 | 3.7347e-05 | deg |
M | 282.1504298514386 | 2.5368e-05 | deg |
tp | 2459495.078741513680 (2021-Oct-07.57874151) | 9.7677e-05 | TDB |
period | 1362.22135514109 3.73 | 1.2074e-05 3.306e-08 | d yr |
n | .264274230205937 | 2.3423e-09 | deg/d |
Q | 2.710832700433124 | 1.6018e-08 | au |
|
| | Orbit Determination Parameters
Additional Information
|